Regional Weather Roundup
Issued by NWS

Current Version | Previous Version | Text Only | Print | Product List | Glossary On
Versions: 1 2 3 4 5 6 7 8 9 10 11 12 13 14 15 16 17 18 19 20 21 22 23 24 25 26 27 28 29 30 31 32 33 34 35 36 37 38 39 40 41 42 43 44 45 46 47 48 49 50
000
ASUS42 KTBW 271017
RWRFL
FLORIDA REGIONAL WEATHER ROUNDUP
NATIONAL WEATHER SERVICE TAMPA BAY RUSKIN FL
500 AM EST MON FEB 27 2017

NOTE: "FAIR" INDICATES FEW OR NO CLOUDS BELOW 12,000 FEET WITH NO
SIGNIFICANT WEATHER AND/OR OBSTRUCTIONS TO VISIBILITY.

FLZ001>010-012>015-112-114-115-271100-
PANHANDLE FLORIDA

CITY           SKY/WX    TMP DP  RH WIND       PRES   REMARKS
PENSACOLA      CLEAR     54  50  86 NE3       30.13R
PENSACOLA NAS  CLEAR     65  55  70 SE8       30.13R
MILTON NAS     LGT RAIN  45  42  89 CALM      30.14
CRESTVIEW      CLEAR     41  38  89 CALM      30.16S
DUKE FIELD     FAIR      54  38  56 SE7       30.13S
VALPARAISO     CLEAR     55  45  70 CALM      30.14R
MARY ESTHER    CLEAR     54  47  78 E5        30.12S
TRI COUNTY     FAIR      46  42  86 CALM      30.17F
PANAMA CITY    FAIR      50  40  68 NE5       30.15F
TYNDALL AFB    CLEAR     56  49  77 E6        30.16S
APALACHICOLA   CLEAR     64  58  80 SE8       30.17S

STATION/POSITION SKY/WX   TEMP    WIND        PRES    WAVE   SWELL
                          AIR SEA DIR/SP/G            HT/PER HT/PER
                          (F)     (DEG/KT/KT) (MB)    (FT/S) (FT/S)
30.1N   87.6W              69 68  160/ 14/ 16 1019.8R   4/ 6
28.8N   86.0W              72 71              1019.8F   4/ 5
PANAMA CITY BEAC           58     100/  9/ 11 1021.1F
TOWER C                    65     130/ 25/ 26 1021.4F
28.5N   84.5W              69 69  130/ 21/ 25 1020.3    5/ 5

$$
FLZ011-016>038-118-127-128-134-139-239-271100-
NORTH FLORIDA

CITY           SKY/WX    TMP DP  RH WIND       PRES   REMARKS
MARIANNA       CLEAR     53  27  36 VRB5      30.16F
TALLAHASSEE    CLEAR     44  34  67 CALM      30.21R
PERRY          CLEAR     50  38  62 E6        30.22S
CROSS CITY     CLEAR     45  39  81 NE3       30.21S
LAKE CITY      FAIR      50  45  81 E6        30.22S
GAINESVILLE    CLEAR     46  42  86 CALM      30.23S
WILLISTON      CLEAR     48  45  87 CALM      30.22F
PALATKA        FAIR      43  43 100 CALM      30.24S
MAYPORT NAS    CLEAR     63  55  75 E14       30.24S
JACKSONVILLE   PTCLDY    45  43  93 CALM      30.23F
JAX NAS        CLEAR     59  51  75 E6        30.24F
FERNANDINA BEA FAIR      64  54  68 E10       30.23S
ST AUGUSTINE   CLEAR     65  55  70 E10       30.24F

STATION/POSITION SKY/WX   TEMP    WIND        PRES    WAVE   SWELL
                          AIR SEA DIR/SP/G            HT/PER HT/PER
                          (F)     (DEG/KT/KT) (MB)    (FT/S) (FT/S)
SHELL POINT      NOT AVBL
KEATON BEACH               52      80/ 11/ 12 1022.4S
CEDAR KEY                  59      90/ 16/ 18 1023.0F
FERNANDINA                 62 67   80/  4/  8 1024.7F
30.7N   81.3W                 63                N/A     3/ 9
MAYPORT                    64 67   80/ 11/ 15 1024.0F
31.4N   80.9W              63 61   80/ 14/ 16 1024.8F   2/ 8   2/ 8
ST AUGUSTINE               67 66  100/ 11/ 12 1024.7F

$$
FLZ040-043>046-052-053-057-058-063-144-271100-
INTERIOR CENTRAL FLORIDA

CITY           SKY/WX    TMP DP  RH WIND       PRES   REMARKS
OCALA          PTCLDY    48  43  81 NE3       30.22S
THE VILLAGES     N/A     54  50  87 CALM      30.12S
LEESBURG       CLEAR     55  50  83 CALM      30.23F
SANFORD        CLEAR     53  49  86 N5        30.23R
ORLANDO EXEC   CLEAR     56  51  84 CALM      30.22R
ORLANDO INTL   CLEAR     55  51  86 N5        30.22R
KISSIMMEE      PTCLDY    57  54  89 E5        30.22S
WINTER HAVEN   PTCLDY    61  54  77 E7        30.21S
LAKELAND       PTCLDY    59  55  88 E5        30.20S
BARTOW         FAIR      59  55  88 E7        30.20S
OKEECHOBEE     PTCLDY    57  55  94 CALM      30.19S

$$
FLZ041-047-054-059-064-141-147-271100-
EAST CENTRAL FLORIDA

CITY           SKY/WX    TMP DP  RH WIND       PRES   REMARKS
DAYTONA BEACH  CLEAR     54  52  93 E3        30.23S
DELAND         PTCLDY    48  45  87 CALM      30.22F
JFK SPACE CTR  CLEAR     65  57  75 E5        30.21R
CAPE CANAVERAL CLEAR     68  59  72 E8        30.20S
PATRICK AFB    CLEAR     71  62  73 E13       30.20S
MELBOURNE      CLEAR     70  62  76 E12       30.20S
VERO BEACH     PTCLDY    72  63  73 E9        30.20R
FT PIERCE      CLEAR     71  64  78 E9        30.18S

STATION/POSITION SKY/WX   TEMP    WIND        PRES    WAVE   SWELL
                          AIR SEA DIR/SP/G            HT/PER HT/PER
                          (F)     (DEG/KT/KT) (MB)    (FT/S) (FT/S)
TRIDENT PIER               70 71   80/  7/ 12 1024.2R
28.4N   80.5W                 71                N/A     3/ 4
27.5N   80.2W                 72                N/A     4/ 5   2/11

$$
FLZ050-056-061-142-242-148-248-149-249-151-251-155-255-
160-260-271100-
WEST CENTRAL FLORIDA

CITY           SKY/WX    TMP DP  RH WIND       PRES   REMARKS
CRYSTAL RIVER  FAIR      50  46  87 E3        30.21S
INVERNESS      FAIR      50  50 100 CALM      30.22F
BROOKSVILLE    PTCLDY    52  48  86 E6        30.21F
CLEARWATER AIR FAIR      63  55  77 E7        30.18S
ST PETE CLEARW PTCLDY    64  56  75 E8        30.18S
TAMPA INTL     CLEAR     65  54  67 E7        30.19S
TAMPA EXEC     CLEAR     55  52  88 CALM      30.20S
PLANT CITY     CLEAR     63  57  82 E6        30.21S
MACDILL AFB    CLEAR     63  58  84 E13       30.18S
PETER O KNIGHT PTCLDY    64  59  82 E9        30.19S
ST PETERSBURG  CLEAR     66  58  75 SE18      30.17S
SARASOTA       CLEAR     61  54  77 E10       30.16S
VENICE         FAIR      61  55  82 NE10      30.18S

STATION/POSITION SKY/WX   TEMP    WIND        PRES    WAVE   SWELL
                          AIR SEA DIR/SP/G            HT/PER HT/PER
                          (F)     (DEG/KT/KT) (MB)    (FT/S) (FT/S)
27.3N   84.2W                 70                N/A     6/ 6
CLEARWATER BEACH           66      90/  8/ 14 1022.1R
MIDDLE TAMPA BAY           64     120/ 14/ 16 1022.1S
VENICE                     60 69   50/  9/ 12 1021.2F

$$
FLZ066-069-070-075>078-162-262-165-265-271100-
SOUTHWEST FLORIDA AND KEYS

CITY           SKY/WX    TMP DP  RH WIND       PRES   REMARKS
PUNTA GORDA    CLEAR     57  55  93 E7        30.19S
FT MYERS       CLEAR     63  59  87 NE9         N/A
SOUTHWEST INTL CLEAR     62  57  83 NE6       30.17R
NAPLES         CLEAR     64  62  93 NE9       30.15R
MARCO ISLAND   CLEAR     63  61  94 NE6       30.15R
MARATHON       CLEAR     76  70  82 E8        30.12S
KEY WEST NAS   CLEAR     73  68  84 E14       30.12R
KEY WEST INTL  CLEAR     75  69  81 E13       30.12S

STATION/POSITION SKY/WX   TEMP    WIND        PRES    WAVE   SWELL
                          AIR SEA DIR/SP/G            HT/PER HT/PER
                          (F)     (DEG/KT/KT) (MB)    (FT/S) (FT/S)
NAPLES                        72              1020.8R
26.0N   85.6W              73 74  100/ 14/ 17 1019.4F   4/ 6   2/11
DRY TORTUGAS               73      80/ 16/ 17 1019.4S
SAND KEY                   75     100/ 17/ 20 1020.1R
LONG KEY                   76 76  100/ 14/ 16 1020.4R
MOLASSES REEF              76 75  120/ 15/ 17 1020.5R

$$
FLZ067-068-071>074-168-172>174-271100-
SOUTHEAST FLORIDA

CITY           SKY/WX    TMP DP  RH WIND       PRES   REMARKS
W PALM BEACH   MOCLDY    74  67  78 E10       30.17R
FT LAUDER-EXEC PTCLDY    76  66  71 E13       30.15R
FT LAUDERDALE  PTCLDY    76  68  76 SE14      30.14R
POMPANO BEACH  PTCLDY    76  68  76 E13       30.15R
PEMBROKE PINES PTCLDY    75  66  73 E14       30.16R
OPA LOCKA      MOCLDY    75  66  73 SE13      30.15R
MIAMI          MOCLDY    75  67  76 E12       30.15R
WEST KENDALL   CLEAR     74  65  73 SE9       30.14R
HOMESTEAD      PTCLDY    74  70  88 E7        30.14R

STATION/POSITION SKY/WX   TEMP    WIND        PRES    WAVE   SWELL
                          AIR SEA DIR/SP/G            HT/PER HT/PER
                          (F)     (DEG/KT/KT) (MB)    (FT/S) (FT/S)
PORT EVERGLADES            76      80/  9/ 13 1020.7R
VIRGINIA KEY               76     110/ 12/ 17 1021.3R
LAKE WORTH                        100/ 16/ 19   N/A
FOWEY ROCKS                76 76  100/ 19/ 20 1020.9R
SETTLEMENT POINT           74      90/ 15/ 16 1022.0R

$$




USA.gov is the U.S. government's official web portal to all federal, state and local government web resources and services.